{"data":{"norad_id":66213,"intl_designator":"2025-244H","name":"STARLINK-34204","alt_names":[],"object_type":"PAYLOAD","status":"ACTIVE","operator":null,"country":"US","launch_date":"2025-10-28","launch_site_code":"AFWTR","launch_vehicle":null,"mission":null,"orbit_class":"UNKNOWN","rcs_meters":null,"size_class":null,"mass_kg":null,"dimensions":null,"purposes":["comms"],"wikipedia_slug":null,"has_3d_model":false,"image_url":null,"decayed_at":null,"tle_current":{"epoch":"2026-05-24T23:21:49.932576Z","epoch_age_seconds":78158,"freshness":"FRESH","line1":"1 66213U 25244H   26144.97349459 -.00002502  00000+0 -72389-4 0  9995","line2":"2 66213  53.1584 235.2448 0001135  96.5593 263.5537 15.30189671 33346","mean_motion":15.30189671,"eccentricity":0.0001135,"inclination_deg":53.1584,"raan_deg":235.2448,"arg_perigee_deg":96.5593,"mean_anomaly_deg":263.5537,"bstar":-7.2389e-5,"rev_number":3334,"period_min":94.10598093104,"perigee_km":474.46805116469,"apogee_km":476.02376908529,"semimajor_km":6853.382910125,"source":"CELESTRAK","updated_at":"2026-05-25T13:38:21.127785Z"}}}